Regional Weather Roundup
Issued by NWS

Home | Current Version | Previous Version | Graphics & Text | Print | Product List | Glossary On
Versions: 1 2 3 4 5 6 7 8 9 10 11 12 13 14 15 16 17 18 19 20 21 22 23 24 25 26 27 28 29 30 31 32 33 34 35 36 37 38 39 40 41 42 43 44 45 46 47 48 49 50
000
ASUS43 KMKX 161510
RWRWI

WISCONSIN REGIONAL WEATHER ROUNDUP
NATIONAL WEATHER SERVICE MILWAUKEE/SULLIVAN WI
900 AM CST TUE JAN 16 2018

NOTE: "FAIR" INDICATES FEW OR NO CLOUDS BELOW 12,000 FEET WITH NO
SIGNIFICANT WEATHER AND/OR OBSTRUCTIONS TO VISIBILITY.

WIZ001-002-006>008-014>016-023>028-161600-
NORTHWEST WISCONSIN

CITY           SKY/WX    TMP DP  RH WIND       PRES   REMARKS
SUPERIOR ARPT  FAIR      -1  -6  76 W5        30.67R WCI -11
ASHLAND        CLOUDY    13   8  81 W7        30.60R HAZE    WCI   3
HAYWARD        FLURRIES   7   2  80 VRB5      30.58R WCI  -2
SIREN          LGT SNOW   2  -2  83 NW6       30.64S WCI  -9
CUMBERLAND     LGT SNOW   5   1  85 NW6       30.59R WCI  -6
RICE LAKE      FLURRIES   6   3  85 CALM      30.61R
CHETEK         PTSUNNY    4   0  83 NW3       30.59R
LADYSMITH      FAIR       5   2  87 NW7       30.56R WCI  -7
EAU CLAIRE     CLOUDY     6   3  87 NW5       30.59R WCI  -3
MENOMONIE      CLOUDY     7   2  82 W10       30.61R WCI  -8
NEW RICHMOND   LGT SNOW   3  -2  81 NW8       30.64R WCI -11
OSCEOLA        CLOUDY     2  -2  84 NW8       30.69R WCI -12
$$

WIZ003>005-009-010-017-018-161600-
NORTH CENTRAL WISCONSIN

CITY           SKY/WX    TMP DP  RH WIND       PRES   REMARKS
MANITOWISH WTR FLURRIES  15  14  98 NW3       30.47S
ARBOR VITAE    LGT SNOW  16  14  90 CALM      30.47R
WOODRUFF       LGT SNOW  16  14  90 CALM      30.47R
RHINELANDER    PTSUNNY   13  10  88 NW7       30.46R WCI   3
EAGLE RIVER    LGT SNOW  13  10  87 N3        30.45R
LAND O LAKES   LGT SNOW  15  13  92 N7        30.47R WCI   5
PHILLIPS       FLURRIES  12  11  95 NW3       30.49R
TOMAHAWK       FAIR      11   9  90 CALM      30.49R
MEDFORD        CLOUDY     9   6  87 N3        30.49R
MERRILL        PTSUNNY    3  -1  85 CALM      30.50R
$$

WIZ029-030-035-036-043>047-161600-
CENTRAL WISCONSIN

CITY           SKY/WX    TMP DP  RH WIND       PRES   REMARKS
WAUSAU         FLURRIES   9   6  88 N6        30.48R WCI  -1
MOSINEE        MOSUNNY    9   7  92 N8        30.50R WCI  -4
MARSHFIELD     CLOUDY    11   7  84 N9        30.49R WCI  -2
STEVENS POINT  FAIR       8   6  93 N8        30.50R WCI  -5
WAUPACA        FAIR      12   7  81 NW3       30.50R
WAUTOMA        FAIR      12   7  80 NW5       30.51R WCI   4
WISC RAPIDS    FAIR       7   3  84 N5        30.52R WCI  -2
CAMP DOUGLAS   MOSUNNY    9   5  85 W7        30.54R WCI  -3
$$

WIZ011>013-019>022-031-037>040-048>050-161600-
NORTHEAST WISCONSIN

CITY           SKY/WX    TMP DP  RH WIND       PRES   REMARKS
ANTIGO         LGT SNOW   1  -2  88 CALM      30.46R
SHAWANO        FAIR      10   7  87 CALM      30.49R
OCONTO         PTSUNNY   11   7  82 N5        30.50R WCI   3
STURGEON BAY   FAIR       9   6  88 NW9       30.48R WCI  -4
GREEN BAY      FAIR      10   6  84 CALM      30.49R
MANITOWOC      FAIR      12   6  77 N15       30.47R WCI  -4
APPLETON       SUNNY     10   5  79 N9        30.45R WCI  -2
CLINTONVILLE   FAIR      12   5  73 N6        30.50R WCI   3
OSHKOSH        FAIR      11   7  84 NW8       30.48R WCI  -1
$$

WIZ032>034-041-042-053>061-161600-
SOUTHWEST WISCONSIN

CITY           SKY/WX    TMP DP  RH WIND       PRES   REMARKS
LA CROSSE      PTSUNNY    5  -1  76 N12       30.62R WCI -11
SPARTA         FLURRIES  -2  -4  90 CALM      30.59R
VIROQUA        FAIR       6   4  94 NW8       30.52R WCI  -7
BOSCOBEL       CLOUDY     6   2  83 CALM      30.59R FOG
PRAIRIE DU CHI LGT SNOW   8   2  77 CALM      30.60R
PLATTEVILLE    CLOUDY     6   4  90 NW10      30.53R WCI  -9
$$

WIZ056-057-062-063-064-067-068-161600-
SOUTH CENTRAL WISCONSIN

CITY           SKY/WX    TMP DP  RH WIND       PRES   REMARKS
REEDSBURG      FAIR       6   4  89 W5        30.53R WCI  -3
BARABOO/DELLS  CLOUDY     9   6  86 NW3       30.52R
LONE ROCK      CLOUDY     5   3  91 W7        30.56R FOG     WCI  -7
MINERAL POINT  FLURRIES  10   9  92 NW12      30.50R WCI  -4
MADISON        FAIR      11   7  84 NW8       30.50R WCI  -1
MIDDLETON      PTSUNNY   13   9  83 NW10      30.51R WCI   0
WATERTOWN      PTSUNNY   14  12  91 NW12      30.46R WCI   0
MONROE         FLURRIES  10   7  85 NW10      30.47R WCI  -3
JANESVILLE     PTSUNNY   12   9  85 NW9       30.47R WCI   0
$$

WIZ051-052-058>065-066-070>072-161600-
SOUTHEAST WISCONSIN

CITY           SKY/WX    TMP DP  RH WIND       PRES   REMARKS
MILWAUKEE      LGT SNOW  20  14  77 NW9       30.43R WCI   9
WAUKESHA       CLOUDY    14  10  85 NW7       30.45R WCI   4
MILWAUKEE/TIMM CLOUDY    18  10  73 N10       30.44R WCI   6
RACINE         LGT SNOW  19  16  88 NW9       30.44R VSB 1   WCI   8
BURLINGTON     FAIR      15  10  80 NW9       30.44R HAZE    WCI   4
KENOSHA        LGT SNOW  17  12  80 NW8       30.42R WCI   7
FOND DU LAC    FAIR      12   5  73 NW6       30.48R WCI   3
SHEBOYGAN      MIX PCPN  12   6  77 N9        30.45R WCI   0
WEST BEND      FAIR      14  10  85 N9        30.44R WCI   2
JUNEAU         FAIR      10   7  87 NW6       30.48R WCI   1
$$

LSZ147-162-161600-
LAKE SUPERIOR

STATION/POSITION TIME  TEMP    WIND        PRES    WAVE
                       AIR SEA DIR/SP/G            HT/PER
                 (UTC) (F)     (DEG/KT/KT) (MB)    (FT/S)
DEVILS ISLAND    1500   15     310/  7/  9 1037.7S
SAXON HARBOR     1430   20     320/ 12/ 16 1034.9R
$$

LMZ867-665-643>646-161600-
LAKE MICHIGAN

STATION/POSITION TIME  TEMP    WIND        PRES    WAVE
                       AIR SEA DIR/SP/G            HT/PER
                 (UTC) (F)     (DEG/KT/KT) (MB)    (FT/S)
NORTHPORT PIER   1440   12      CALM  /  1 1032.2R
KEWAUNEE LAKESHO 1442   11     330/  9/ 14 1030.5R
SHEBOYGAN LAKESH 1500   15     330/ 16/ 19 1032.3R
PORT WASHINGTON  1440   15     320/  9/ 15 1031.5R
MILWAUKEE LAKESH 1450   18     330/ 14/ 18   N/A
KENOSHA   LAKESH 1500   18     310/ 10/ 14 1030.1
$$

TC  - TEMPERATURE IN CELSIUS
VSB - VISIBILITY IN STATUTE MILES
WCI - WIND CHILL INDEX
HX  - HEAT INDEX




USA.gov is the U.S. government's official web portal to all federal, state and local government web resources and services.